WB4FAY-4 Weather Reports


time (UTC)temp
C
wind
direction
speed
KPH
gust
KPH
rain 1hr
cm
rain 24hr
cm
rain mn
cm
humidity
%
barometer
mb
20260902163017 34 93 0.0 8.0 0.00 0.00 0.00 48 1020.3
20260902162517 33 100 1.6 8.0 0.00 0.00 0.00 50 1020.3
20260902162017 33 0 0.0 0.0 0.00 0.00 0.00 51 1020.3
20260902161517 33 267 0.0 6.4 0.00 0.00 0.00 51 1020.4
20260902161017 33 0 0.0 0.0 0.00 0.00 0.00 52 1020.5
20260902160517 33 0 0.0 0.0 0.00 0.00 0.00 51 1020.5
20260902160018 33 72 0.0 4.8 0.00 0.00 0.00 50 1020.7
20260902155517 33 85 1.6 8.0 0.00 0.00 0.00 49 1020.7
20260902155017 33 85 0.0 11.3 0.00 0.00 0.00 50 1020.7
20260902154516 33 30 0.0 4.8 0.00 0.00 0.00 50 1020.7
20260902154017 33 6 0.0 1.6 0.00 0.00 0.00 51 1020.7
20260902153517 33 10 0.0 4.8 0.00 0.00 0.00 53 1020.7
20260902153018 33 0 0.0 0.0 0.00 0.00 0.00 52 1020.7
20260902152517 33 0 0.0 0.0 0.00 0.00 0.00 52 1020.7
20260902152017 32 56 0.0 8.0 0.00 0.00 0.00 54 1020.7
20260902151516 32 58 8.0 3.2 0.00 0.00 0.00 56 1020.7
20260902151017 32 97 0.0 6.4 0.00 0.00 0.00 57 1020.7
20260902150517 32 54 3.2 8.0 0.00 0.00 0.00 59 1020.5
20260902150017 32 0 0.0 0.0 0.00 0.00 0.00 61 1020.5
20260902145517 31 0 0.0 0.0 0.00 0.00 0.00 61 1020.5
20260902145017 31 0 0.0 0.0 0.00 0.00 0.00 62 1020.5
20260902144518 31 0 0.0 0.0 0.00 0.00 0.00 64 1020.4
20260902144017 31 0 0.0 0.0 0.00 0.00 0.00 65 1020.5
20260902143517 30 0 0.0 0.0 0.00 0.00 0.00 67 1020.4
20260902143017 30 138 0.0 3.2 0.00 0.00 0.00 68 1020.4
20260902142517 30 143 1.6 4.8 0.00 0.00 0.00 69 1020.4
20260902142017 29 130 1.6 4.8 0.00 0.00 0.00 70 1020.4
20260902141517 29 130 3.2 3.2 0.00 0.00 0.00 71 1020.5
20260902141017 28 141 1.6 3.2 0.00 0.00 0.00 71 1020.5
20260902140517 28 0 0.0 0.0 0.00 0.00 0.00 72 1020.5
20260902140017 28 95 0.0 1.6 0.00 0.00 0.00 72 1020.7
20260902135517 28 120 0.0 3.2 0.00 0.00 0.00 73 1020.5
20260902135017 28 54 3.2 4.8 0.00 0.00 0.00 74 1020.5
20260902134517 27 86 1.6 4.8 0.00 0.00 0.00 75 1020.5
20260902134017 27 103 0.0 3.2 0.00 0.00 0.00 75 1020.5
20260902133517 27 104 1.6 3.2 0.00 0.00 0.00 76 1020.7
20260902133017 27 0 0.0 0.0 0.00 0.00 0.00 77 1020.7
20260902132517 26 83 0.0 1.6 0.00 0.00 0.00 78 1020.7
20260902132017 26 55 0.0 1.6 0.00 0.00 0.00 79 1020.5
20260902131517 26 88 1.6 6.4 0.00 0.00 0.00 80 1020.5
20260902131017 26 82 4.8 6.4 0.00 0.00 0.00 82 1020.4
20260902130517 26 86 0.0 3.2 0.00 0.00 0.00 83 1020.4
20260902130017 25 120 1.6 4.8 0.00 0.00 0.00 84 1020.5
20260902125517 25 72 3.2 3.2 0.00 0.00 0.00 85 1020.4
20260902125017 25 95 1.6 4.8 0.00 0.00 0.00 86 1020.5
20260902124517 25 90 4.8 4.8 0.00 0.00 0.00 87 1020.5
20260902124017 25 89 3.2 4.8 0.00 0.00 0.00 88 1020.4
20260902123517 24 0 0.0 0.0 0.00 0.00 0.00 89 1020.4
20260902123017 24 0 0.0 0.0 0.00 0.00 0.00 89 1020.4
20260902122517 24 0 0.0 0.0 0.00 0.00 0.00 89 1020.4
20260902122016 24 0 0.0 0.0 0.00 0.00 0.00 89 1020.3
20260902121517 24 0 0.0 0.0 0.00 0.00 0.00 89 1020.3
20260902121017 24 0 0.0 0.0 0.00 0.00 0.00 89 1020.3
20260902120517 24 0 0.0 0.0 0.00 0.00 0.00 89 1020.3
20260902120017 24 0 0.0 0.0 0.00 0.00 0.00 89 1020.3
20260902115517 24 0 0.0 0.0 0.00 0.00 0.00 89 1020.3
20260902115017 24 0 0.0 0.0 0.00 0.00 0.00 89 1020.2
20260902114517 24 0 0.0 0.0 0.00 0.00 0.00 89 1020.1
20260902114017 24 0 0.0 0.0 0.00 0.00 0.00 89 1020.0
20260902113517 24 0 0.0 0.0 0.00 0.00 0.00 88 1020.0
20260902113017 24 0 0.0 0.0 0.00 0.00 0.00 88 1020.0
20260902112517 24 0 0.0 0.0 0.00 0.00 0.00 88 1020.0
20260902112017 24 0 0.0 0.0 0.00 0.00 0.00 88 1019.9
20260902111516 24 0 0.0 0.0 0.00 0.00 0.00 88 1019.9
20260902111017 24 0 0.0 0.0 0.00 0.00 0.00 88 1019.9
20260902110517 24 0 0.0 0.0 0.00 0.00 0.00 88 1019.8
20260902110017 24 0 0.0 0.0 0.00 0.00 0.00 88 1019.9
20260902105517 24 0 0.0 0.0 0.00 0.00 0.00 88 1019.8
20260902105017 24 0 0.0 0.0 0.00 0.00 0.00 88 1019.7
20260902104518 24 0 0.0 0.0 0.00 0.00 0.00 88 1019.7
20260902104017 24 0 0.0 0.0 0.00 0.00 0.00 87 1019.7
20260902103517 24 0 0.0 0.0 0.00 0.00 0.00 87 1019.7
20260902103017 24 0 0.0 0.0 0.00 0.00 0.00 87 1019.6
20260902102517 24 0 0.0 0.0 0.00 0.00 0.00 87 1019.6
20260902102017 24 0 0.0 0.0 0.00 0.00 0.00 87 1019.6
20260902101517 24 0 0.0 0.0 0.00 0.00 0.00 87 1019.6
20260902101017 24 0 0.0 0.0 0.00 0.00 0.00 87 1019.5
20260902100518 24 0 0.0 0.0 0.00 0.00 0.00 87 1019.5
20260902100017 24 0 0.0 0.0 0.00 0.00 0.00 87 1019.5
20260902095517 24 0 0.0 0.0 0.00 0.00 0.00 87 1019.5
20260902095017 24 0 0.0 0.0 0.00 0.00 0.00 87 1019.4
20260902094517 24 0 0.0 0.0 0.00 0.00 0.00 87 1019.3
20260902094017 24 0 0.0 0.0 0.00 0.00 0.00 86 1019.2
20260902093517 24 0 0.0 0.0 0.00 0.00 0.00 86 1019.2
20260902093017 25 0 0.0 0.0 0.00 0.00 0.00 86 1019.2
20260902092517 24 0 0.0 0.0 0.00 0.00 0.00 86 1019.1
20260902092017 25 0 0.0 0.0 0.00 0.00 0.00 86 1019.1
20260902091517 25 0 0.0 0.0 0.00 0.00 0.00 86 1019.0
20260902091017 25 0 0.0 0.0 0.00 0.00 0.00 86 1019.0
20260902090517 25 0 0.0 0.0 0.00 0.00 0.00 86 1019.0
20260902090017 25 0 0.0 0.0 0.00 0.00 0.00 86 1018.9
20260902085517 25 0 0.0 0.0 0.00 0.00 0.00 86 1018.9
20260902085017 25 0 0.0 0.0 0.00 0.00 0.00 86 1018.9
20260902084518 25 0 0.0 0.0 0.00 0.00 0.00 86 1018.9
20260902084017 25 0 0.0 0.0 0.00 0.00 0.00 86 1018.8
20260902083517 25 0 0.0 0.0 0.00 0.00 0.00 86 1018.8
20260902083017 25 0 0.0 0.0 0.00 0.00 0.00 85 1018.8
20260902082517 25 0 0.0 0.0 0.00 0.00 0.00 85 1018.7
20260902082017 25 0 0.0 0.0 0.00 0.00 0.00 85 1018.7
20260902081517 25 0 0.0 0.0 0.00 0.00 0.00 85 1018.7
20260902081017 25 0 0.0 0.0 0.00 0.00 0.00 85 1018.7
20260902080517 25 0 0.0 0.0 0.00 0.00 0.00 85 1018.6
20260902080018 25 0 0.0 0.0 0.00 0.00 0.00 84 1018.6
20260902075517 25 0 0.0 0.0 0.00 0.00 0.00 84 1018.7
20260902075017 25 0 0.0 0.0 0.00 0.00 0.00 84 1018.7
20260902074517 25 0 0.0 0.0 0.00 0.00 0.00 84 1018.7
20260902074017 25 0 0.0 0.0 0.00 0.00 0.00 84 1018.7
20260902073517 25 0 0.0 0.0 0.00 0.00 0.00 83 1018.6
20260902073017 25 0 0.0 0.0 0.00 0.00 0.00 83 1018.6
20260902072517 25 0 0.0 0.0 0.00 0.00 0.00 83 1018.7
20260902072017 25 0 0.0 0.0 0.00 0.00 0.00 82 1018.7
20260902071516 25 0 0.0 0.0 0.00 0.00 0.00 82 1018.8
20260902071017 25 0 0.0 0.0 0.00 0.00 0.00 82 1018.7
20260902070517 25 0 0.0 0.0 0.00 0.00 0.00 81 1018.7
20260902070017 25 0 0.0 0.0 0.00 0.00 0.00 81 1018.8
20260902065517 26 0 0.0 0.0 0.00 0.00 0.00 81 1018.8
20260902065017 26 0 0.0 0.0 0.00 0.00 0.00 81 1018.7
20260902064518 26 0 0.0 0.0 0.00 0.00 0.00 80 1018.6
20260902064017 26 0 0.0 0.0 0.00 0.00 0.00 80 1018.7
20260902063518 25 0 0.0 0.0 0.00 0.00 0.00 80 1018.6
20260902063017 26 0 0.0 0.0 0.00 0.00 0.00 80 1018.7
20260902062517 26 0 0.0 0.0 0.00 0.00 0.00 80 1018.7
20260902062018 26 0 0.0 0.0 0.00 0.00 0.00 80 1018.7
20260902061517 26 0 0.0 0.0 0.00 0.00 0.00 80 1018.7
20260902061017 26 0 0.0 0.0 0.00 0.00 0.00 80 1018.7
20260902060517 26 0 0.0 0.0 0.00 0.00 0.00 80 1018.8
20260902060017 26 0 0.0 0.0 0.00 0.00 0.00 80 1018.8
20260902055517 26 0 0.0 0.0 0.00 0.00 0.00 80 1018.9
20260902055017 26 0 0.0 0.0 0.00 0.00 0.00 79 1018.9
20260902054517 26 0 0.0 0.0 0.00 0.00 0.00 79 1019.0
20260902054017 26 0 0.0 0.0 0.00 0.00 0.00 79 1019.0
20260902053517 26 0 0.0 0.0 0.00 0.00 0.00 79 1019.0
20260902053018 26 0 0.0 0.0 0.00 0.00 0.00 78 1019.0
20260902052517 26 0 0.0 0.0 0.00 0.00 0.00 78 1019.0
20260902052017 26 0 0.0 0.0 0.00 0.00 0.00 78 1018.9
20260902051517 26 0 0.0 0.0 0.00 0.00 0.00 78 1018.9
20260902051017 26 0 0.0 0.0 0.00 0.00 0.00 77 1018.9
20260902050517 26 0 0.0 0.0 0.00 0.00 0.00 77 1018.8
20260902050017 26 0 0.0 0.0 0.00 0.00 0.00 77 1018.9
20260902045517 26 0 0.0 0.0 0.00 0.00 0.00 76 1018.9
20260902045018 26 0 0.0 0.0 0.00 0.00 0.00 76 1018.9
20260902044517 26 0 0.0 0.0 0.00 0.00 0.00 76 1019.0
20260902044017 26 0 0.0 0.0 0.00 0.00 0.00 75 1018.9
20260902043518 26 0 0.0 0.0 0.00 0.00 0.00 75 1019.0
20260902043017 26 0 0.0 0.0 0.00 0.00 0.00 75 1019.1
20260902042517 26 0 0.0 0.0 0.00 0.00 0.00 74 1019.1
20260902042017 27 0 0.0 0.0 0.00 0.00 0.00 74 1019.1
20260902041517 27 0 0.0 0.0 0.00 0.00 0.00 73 1019.1
20260902041017 27 0 0.0 0.0 0.00 0.00 0.00 73 1019.1
20260902040517 27 0 0.0 0.0 0.00 0.00 0.00 72 1019.1
20260902040017 27 0 0.0 0.0 0.00 0.00 0.00 72 1019.2
20260902035518 27 0 0.0 0.0 0.00 0.00 0.00 72 1019.1
20260902035017 27 0 0.0 0.0 0.00 0.00 0.00 72 1019.1
20260902034518 27 0 0.0 0.0 0.00 0.00 0.00 72 1019.1
20260902034017 27 0 0.0 0.0 0.00 0.00 0.00 71 1019.0
20260902033517 27 0 0.0 0.0 0.00 0.00 0.00 71 1019.1
20260902033017 27 0 0.0 0.0 0.00 0.00 0.00 71 1019.1
20260902032517 27 0 0.0 0.0 0.00 0.00 0.00 71 1019.1
20260902032017 27 0 0.0 0.0 0.00 0.00 0.00 71 1019.0
20260902031517 27 0 0.0 0.0 0.00 0.00 0.00 70 1019.0
20260902031017 27 0 0.0 0.0 0.00 0.00 0.00 70 1019.0
20260902030517 27 0 0.0 0.0 0.00 0.00 0.00 70 1019.0
20260902030017 27 0 0.0 0.0 0.00 0.00 0.00 70 1019.0
20260902025517 27 0 0.0 0.0 0.00 0.00 0.00 70 1019.0
20260902025017 28 0 0.0 0.0 0.00 0.00 0.00 69 1019.0
20260902024517 28 0 0.0 0.0 0.00 0.00 0.00 69 1018.9
20260902024017 28 0 0.0 0.0 0.00 0.00 0.00 69 1018.9
20260902023517 28 0 0.0 0.0 0.00 0.00 0.00 69 1018.9
20260902023017 28 0 0.0 0.0 0.00 0.00 0.00 68 1018.8
20260902022517 28 0 0.0 0.0 0.00 0.00 0.00 68 1018.8
20260902022017 28 0 0.0 0.0 0.00 0.00 0.00 67 1018.7
20260902021517 28 0 0.0 0.0 0.00 0.00 0.00 68 1018.7
20260902021017 28 0 0.0 0.0 0.00 0.00 0.00 67 1018.7
20260902020517 28 0 0.0 0.0 0.00 0.00 0.00 68 1015.4
20260902020017 28 0 0.0 0.0 0.00 0.00 0.00 67 1018.5
20260902015517 28 0 0.0 0.0 0.00 0.00 0.00 67 1018.4
20260902015017 28 0 0.0 0.0 0.00 0.00 0.00 66 1018.3
20260902014517 28 0 0.0 0.0 0.00 0.00 0.00 66 1018.3
20260902014017 28 0 0.0 0.0 0.00 0.00 0.00 65 1018.3
20260902013517 28 0 0.0 0.0 0.00 0.00 0.00 65 1018.2
20260902013017 28 0 0.0 0.0 0.00 0.00 0.00 65 1018.2
20260902012517 28 0 0.0 0.0 0.00 0.00 0.00 64 1018.1
20260902012018 29 0 0.0 0.0 0.00 0.00 0.00 64 1018.1
20260902011523 29 0 0.0 0.0 0.00 0.00 0.00 63 1017.1
20260902011017 29 0 0.0 0.0 0.00 0.00 0.00 62 1018.0
20260902010517 29 0 0.0 0.0 0.00 0.00 0.00 62 1018.0
20260902010017 30 0 0.0 0.0 0.00 0.00 0.00 61 1013.1
20260902005517 30 0 0.0 0.0 0.00 0.00 0.00 1004.4
20260902005017 30 0 0.0 0.0 0.00 0.00 0.00 61 1017.9
20260902004517 30 0 0.0 0.0 0.00 0.00 0.00 60 1014.7
20260902004017 30 0 0.0 0.0 0.00 0.00 0.00 59 1017.8
20260902003517 30 0 0.0 0.0 0.00 0.00 0.00 59 1017.8
20260902003017 30 0 0.0 0.0 0.00 0.00 0.00 58 1017.8
20260902002517 30 0 0.0 0.0 0.00 0.00 0.00 57 1017.8
20260902002017 31 0 0.0 0.0 0.00 0.00 0.00 57 1017.8
20260902001517 31 0 0.0 0.0 0.00 0.00 0.00 56 1017.8
20260902001017 31 0 0.0 0.0 0.00 0.00 0.00 55 1017.8
20260902000517 31 0 0.0 0.0 0.00 0.00 0.00 55 1017.7
20260902000017 31 0 0.0 0.0 0.00 0.00 0.00 53 1017.8
20260901235517 32 0 0.0 0.0 0.00 0.00 0.00 52 1017.9
20260901235017 32 0 0.0 0.0 0.00 0.00 0.00 51 1017.9
20260901234517 32 0 0.0 0.0 0.00 0.00 0.00 50 1017.9
20260901234017 33 0 0.0 0.0 0.00 0.00 0.00 48 1017.9
20260901233517 33 64 0.0 4.8 0.00 0.00 0.00 47 1018.0
20260901233017 33 75 0.0 3.2 0.00 0.00 0.00 46 1018.0
20260901232517 33 78 0.0 4.8 0.00 0.00 0.00 45 1018.1
20260901232017 33 102 0.0 9.7 0.00 0.00 0.00 45 1018.1
20260901231517 33 0 0.0 0.0 0.00 0.00 0.00 44 1018.0
20260901231017 33 103 0.0 9.7 0.00 0.00 0.00 44 1018.0
20260901230517 33 90 3.2 9.7 0.00 0.00 0.00 43 1018.0
20260901230017 33 69 3.2 9.7 0.00 0.00 0.00 43 1018.0
20260901225517 33 110 0.0 6.4 0.00 0.00 0.00 43 1018.0
20260901225017 33 86 0.0 8.0 0.00 0.00 0.00 42 1018.0
20260901224517 34 56 1.6 8.0 0.00 0.00 0.00 42 1018.0
20260901224017 34 86 0.0 11.3 0.00 0.00 0.00 42 1018.0
20260901223517 34 80 0.0 4.8 0.00 0.00 0.00 42 1018.0
20260901223016 34 82 0.0 11.3 0.00 0.00 0.00 42 1017.9
20260901222517 34 0 3.2 0.0 0.00 0.00 0.00 41 1017.9
20260901222022 34 4 0.0 8.0 0.00 0.00 0.00 41 1017.9
20260901221517 35 90 0.0 8.0 0.00 0.00 0.00 40 1017.8
20260901221017 35 64 0.0 12.9 0.00 0.00 0.00 40 1017.9
20260901220517 35 103 4.8 9.7 0.00 0.00 0.00 40 1017.9
20260901220017 35 97 0.0 12.9 0.00 0.00 0.00 40 1017.9
20260901215517 35 72 3.2 8.0 0.00 0.00 0.00 39 1017.9
20260901215017 35 89 0.0 19.3 0.00 0.00 0.00 38 1017.9
20260901214517 35 86 17.7 16.1 0.00 0.00 0.00 38 1017.9
20260901214017 35 90 0.0 17.7 0.00 0.00 0.00 37 1018.0
20260901213517 36 82 0.0 12.9 0.00 0.00 0.00 37 1017.9
20260901213017 36 120 0.0 9.7 0.00 0.00 0.00 37 1017.9
20260901212517 36 73 1.6 9.7 0.00 0.00 0.00 37 1017.9
20260901212017 36 24 3.2 6.4 0.00 0.00 0.00 37 1018.0
20260901211517 36 41 0.0 16.1 0.00 0.00 0.00 37 1018.1
20260901211017 36 92 8.0 14.5 0.00 0.00 0.00 36 1018.2
20260901210518 36 79 4.8 14.5 0.00 0.00 0.00 36 1018.3
20260901210017 36 68 0.0 14.5 0.00 0.00 0.00 37 1018.2
20260901205517 36 17 4.8 11.3 0.00 0.00 0.00 37 1018.3
20260901205017 36 0 8.0 0.0 0.00 0.00 0.00 36 1018.3
20260901204517 36 95 0.0 17.7 0.00 0.00 0.00 35 1018.3
20260901204017 36 96 0.0 8.0 0.00 0.00 0.00 35 1018.4
20260901203517 36 100 1.6 11.3 0.00 0.00 0.00 36 1018.4
20260901203017 36 100 8.0 11.3 0.00 0.00 0.00 36 1018.5
20260901202517 36 123 3.2 9.7 0.00 0.00 0.00 36 1018.5
20260901202017 36 89 0.0 11.3 0.00 0.00 0.00 38 1018.6
20260901201517 36 65 1.6 9.7 0.00 0.00 0.00 38 1018.7
20260901201017 36 68 4.8 12.9 0.00 0.00 0.00 37 1018.8
20260901200517 35 79 0.0 12.9 0.00 0.00 0.00 39 1018.8
20260901200017 35 90 6.4 12.9 0.00 0.00 0.00 40 1018.9
20260901195517 35 32 11.3 8.0 0.00 0.00 0.00 40 1019.0
20260901195017 35 69 3.2 12.9 0.00 0.00 0.00 39 1019.0
20260901194517 35 6 1.6 8.0 0.00 0.00 0.00 39 1019.0
20260901194017 35 76 0.0 11.3 0.00 0.00 0.00 40 1019.0
20260901193517 35 90 9.7 11.3 0.00 0.00 0.00 39 1019.1
20260901193018 35 86 6.4 11.3 0.00 0.00 0.00 41 1019.2
20260901192517 35 51 0.0 14.5 0.00 0.00 0.00 40 1019.2
20260901192017 35 45 0.0 8.0 0.00 0.00 0.00 40 1019.3
20260901191517 35 72 3.2 14.5 0.00 0.00 0.00 39 1019.4
20260901191017 35 83 11.3 12.9 0.00 0.00 0.00 40 1019.4
20260901190517 35 37 1.6 16.1 0.00 0.00 0.00 39 1019.4
20260901190017 35 104 4.8 8.0 0.00 0.00 0.00 39 1019.5
20260901185517 35 66 6.4 6.4 0.00 0.00 0.00 41 1019.6
20260901185017 35 73 1.6 9.7 0.00 0.00 0.00 41 1019.7
20260901184518 35 65 6.4 9.7 0.00 0.00 0.00 41 1019.7
20260901184017 35 44 0.0 9.7 0.00 0.00 0.00 40 1019.7
20260901183517 35 90 0.0 14.5 0.00 0.00 0.00 40 1019.7
20260901183017 35 78 4.8 12.9 0.00 0.00 0.00 40 1019.8
20260901182517 35 113 9.7 16.1 0.00 0.00 0.00 41 1019.9
20260901182017 35 112 11.3 9.7 0.00 0.00 0.00 41 1019.9
20260901181517 35 44 0.0 6.4 0.00 0.00 0.00 43 1019.9
20260901181017 35 86 3.2 12.9 0.00 0.00 0.00 44 1019.9
20260901180517 34 52 1.6 8.0 0.00 0.00 0.00 42 1019.9
20260901180017 35 90 6.4 11.3 0.00 0.00 0.00 42 1019.9
20260901175517 35 48 6.4 11.3 0.00 0.00 0.00 43 1020.0
20260901175018 34 47 4.8 6.4 0.00 0.00 0.00 44 1019.9
20260901174517 34 78 3.2 11.3 0.00 0.00 0.00 44 1020.0
20260901174018 34 69 8.0 12.9 0.00 0.00 0.00 44 1020.1
20260901173517 34 4 0.0 8.0 0.00 0.00 0.00 44 1020.1
20260901173022 34 150 4.8 8.0 0.00 0.00 0.00 44 1020.2
20260901172517 34 134 1.6 8.0 0.00 0.00 0.00 44 1020.2
20260901172017 33 56 0.0 6.4 0.00 0.00 0.00 45 1020.2
20260901171518 33 71 0.0 6.4 0.00 0.00 0.00 45 1020.2
20260901171017 33 100 4.8 9.7 0.00 0.00 0.00 45 1020.3
20260901170558 33 80 1.6 14.5 0.00 0.00 0.00 45 1020.4
20260901170017 33 44 0.0 8.0 0.00 0.00 0.00 47 1020.5
20260901165517 33 155 0.0 6.4 0.00 0.00 0.00 46 1020.5
20260901165017 33 89 4.8 9.7 0.00 0.00 0.00 47 1020.5
20260901164517 33 89 4.8 11.3 0.00 0.00 0.00 48 1020.5
20260901164018 32 20 6.4 1.6 0.00 0.00 0.00 48 1020.5
20260901163518 32 10 0.0 4.8 0.00 0.00 0.00 50 1020.5